#timestamp,LO_Frequency,Hit,StdDev 
1518613215.7,286047002.5,P
1518613235.5,286047002.8,P
1518613255.4,286047002.4,P
1518613275.2,286047002.4,Y
1518613295.1,286046998.4,P
1518613296.0,286046998.4,N
1518613315.8,286046998.2,N
1518613335.6,286046998.7,N
1518613355.5,286046998.6,N
1518613375.3,286047000.2,N
1518613395.1,286047000.5,N
1518613415.9,286046999.9,N
1518613435.7,286047002.3,N
1518613455.6,286047002.3,N
1518613475.4,286047002.1,N
1518613495.2,286047003.5,N
1518613515.1,286047002.9,N
1518613516.0,286047002.9,N
1518613535.8,286047003.3,N
1518613555.7,286047004.0,N
1518613575.5,286047005.5,N
1518613595.3,286047002.9,N
1518613615.2,286047003.8,N
1518613635.9,286047003.4,N
1518613655.7,286047007.5,Y
1518613675.6,286047005.6,P
1518613695.4,286047005.7,N
1518613715.3,286047003.0,N
1518613735.1,286047005.5,Y
1518613736.0,286047005.5,P
1518613755.8,286047000.3,N
1518613775.7,286047000.6,N
1518613795.5,286047001.1,N
1518613815.4,286047000.7,N
1518613835.2,286046998.8,N
1518613855.0,286046998.5,N
1518613855.9,286046998.5,N
1518613875.8,286047000.8,N
1518613895.6,286047002.8,N
1518613915.4,286047002.2,N
1518613935.3,286047000.0,N
1518613955.1,286047000.8,N
1518613975.9,286046998.4,N
1518613995.7,286046997.1,N
1518614015.5,286046999.5,N
1518614035.4,286046998.7,N
1518614055.2,286046998.3,N
1518614075.0,286046998.6,N
1518614076.0,286046998.6,N
1518614095.8,286046999.0,N
1518614115.6,286046995.3,N
1518614135.5,286046995.4,N
1518614155.3,286046996.1,N
1518614175.1,286046995.5,N
1518614195.9,286046997.9,N
1518614215.7,286046995.3,N
1518614235.5,286046997.3,N
1518614255.4,286046997.7,N
1518614275.2,286046996.7,N
1518614295.1,286046999.1,N
1518614296.0,286046999.1,N
1518614315.8,286046999.4,N
1518614335.6,286046999.5,N
1518614355.5,286046999.0,N
1518614375.3,286046998.7,N
1518614395.2,286047000.3,N
1518614415.9,286047002.8,N
1518614435.7,286047000.0,N
1518614455.6,286047002.1,N
1518614475.4,286047002.3,N
1518614495.2,286047002.8,N
1518614515.1,286046998.6,N
1518614516.0,286046998.6,N
1518614535.8,286046999.9,N
1518614555.7,286047000.2,N
1518614575.5,286046998.1,N
1518614595.3,286046999.9,N
1518614615.2,286047002.7,N
1518614635.0,286046999.8,N
1518614635.9,286046999.8,N
1518614655.8,286047002.7,N
1518614675.6,286047000.0,N
1518614695.4,286047001.1,N
1518614715.3,286046999.3,N
1518614735.1,286047001.0,N
1518614755.9,286046998.2,N
1518614775.7,286046998.7,N
1518614795.5,286046998.9,N
1518614815.4,286046998.2,N
1518614835.2,286047000.9,N
1518614855.1,286047001.0,N
1518614856.0,286047001.0,N
1518614875.8,286047000.1,N
1518614895.6,286047000.2,N
1518614915.5,286047001.2,N
1518614935.3,286047000.3,N
1518614955.1,286046998.5,N
1518614975.9,286047001.0,N
1518614995.7,286046999.9,N
1518615015.6,286047000.1,N
1518615035.4,286047002.2,N
1518615055.2,286047004.0,Y
1518615075.1,286047002.6,P
1518615076.0,286047002.6,N
1518615095.8,286047003.8,P
1518615115.7,286047004.4,Y
1518615135.5,286046999.9,P
1518615155.3,286047000.4,N
1518615175.2,286047000.0,N
1518615195.0,286047000.5,N
1518615195.9,286047000.5,N
1518615215.8,286047000.2,N
1518615235.6,286047002.2,N
1518615255.4,286047003.4,Y
1518615275.3,286047001.7,P
1518615295.1,286047002.5,P
1518615315.8,286047004.3,P
1518615335.7,286046999.8,N
1518615355.5,286047002.5,N
1518615375.4,286047001.5,N
1518615395.2,286047004.4,Y
1518615415.0,286046999.8,P
1518615415.9,286046999.8,N
1518615435.8,286047000.9,N
1518615455.6,286047000.3,N
1518615475.5,286047002.5,Y
1518615495.3,286046999.8,P
1518615515.1,286046999.7,N
1518615535.9,286047002.8,P
1518615555.7,286047000.1,N
1518615575.6,286047002.4,N
1518615595.4,286047000.1,N
1518615615.2,286047002.6,N
1518615635.1,286047004.2,Y
1518615636.0,286047004.2,P
1518615655.8,286047001.6,N
1518615675.7,286047001.7,N
1518615695.5,286047004.4,Y
1518615715.3,286047002.3,P
1518615735.2,286047002.8,P
1518615755.0,286047000.1,N
1518615755.9,286047000.1,N
1518615775.7,286047002.1,N
1518615795.6,286047001.8,N
1518615815.4,286047004.2,Y
1518615835.3,286047002.0,P
1518615855.1,286047004.0,P
1518615875.8,286047004.3,P
1518615895.7,286047004.1,Y
1518615915.5,286047000.0,P
1518615935.4,286047000.6,N
1518615955.2,286047002.8,N
1518615975.0,286047000.1,N
1518615975.9,286047000.1,N
1518615995.8,286047002.1,N
1518616015.6,286047002.7,N
1518616035.5,286047002.4,N
1518616055.3,286047001.9,N
1518616075.1,286047000.6,N
1518616095.9,286047001.0,N
1518616115.7,286047000.7,N
1518616135.5,286047002.7,N
1518616155.4,286047001.5,N
1518616175.2,286046999.8,N
1518616195.1,286046999.9,N
1518616196.0,286046999.9,N
1518616215.8,286046998.1,N
1518616235.6,286046998.3,N
1518616255.5,286046998.8,N
1518616275.3,286046998.9,N
1518616295.2,286047000.8,N
1518616315.9,286047001.1,N
1518616335.7,286046998.3,N
1518616355.6,286046998.7,N
1518616375.4,286046996.5,N
1518616395.2,286046996.8,N
1518616415.1,286046998.3,N
1518616416.0,286046998.3,N
1518616435.8,286047000.3,N
1518616455.7,286047000.5,N
1518616475.5,286046999.2,N
1518616495.3,286046999.0,N
1518616515.2,286046998.6,N
1518616535.0,286046996.9,N
1518616535.9,286046996.9,N
1518616555.8,286046999.6,N
1518616575.6,286046999.0,N
1518616595.4,286046996.5,N
1518616615.3,286046998.8,N
1518616635.1,286046998.9,N
1518616655.8,286046996.9,N
1518616675.7,286046997.2,N
1518616695.5,286046996.7,N
1518616715.4,286046997.7,N
1518616735.2,286046998.2,N
1518616755.0,286046996.9,N
1518616755.9,286046996.9,N
1518616775.8,286046999.3,N
1518616795.6,286046999.6,N
